GLOBALSTAR M080

Last updated on Sun Jun 21 2026 00:03:18 GMT+0000 (Coordinated Universal Time)

1 38041U 11080B 26171.03398437 -.00000090 00000+0 74924-4 0 9999 2 38041 52.0078 10.3347 0000404 72.1904 93.2346 12.62269508669244
UTC large
Height (km)
Speed (km/s)
/
Latitude / Longitude
Inclination (degrees)
Orbital Period (minutes)
Azimuth
Elevation
Range (km)
Doppler Factor

Next 0 passes for location: London (51.5072 / 0.1276)

No passes found over London.
GLOBALSTAR M080